Location: Newark
(49.8348°N, 24.0280°E)
Time: 05:46:44
(UTC+00:00)

S-56A Canister/Altair - Pass Details

Date: 04 February 2020
Orbit: 633 x 2499 km, 38.9° (Epoch: 20 February)

Event Time Altitude Azimuth Distance (km) Brightness Sun altitude
Rises 17:17:23 0° 252° (WSW) 5,073 13.2 -18.7°
Reaches altitude 10° 17:21:28 10° 245° (WSW) 3,762 12.1 -19.3°
Maximum altitude 17:29:32 36° 184° (S) 1,764 9.3 -20.6°
Enters shadow 17:32:47 23° 137° (SE) 1,999 9.3 -21.1°
Drops below altitude 10° 17:35:12 10° 120° (ESE) 2,611 - -21.5°
Sets 17:37:32 0° 111° (ESE) 3,373 - -21.9°
